Regional Weather Roundup
Issued by NWS

Home | Current Version | Previous Version | Graphics & Text | Print | Product List | Glossary On
Versions: 1 2 3 4 5 6 7 8 9 10 11 12 13 14 15 16 17 18 19 20 21 22 23 24 25 26 27 28 29 30 31 32 33 34 35 36 37 38 39 40 41 42 43 44 45 46 47 48 49 50
000
ASUS43 KOAX 302102
RWRNE

WEATHER ROUNDUP FOR NEBRASKA
NATIONAL WEATHER SERVICE OMAHA NE
400 PM CDT TUE SEP 30 2014

NOTES: SATELLITE DATA IS BEING USED TO AUGMENT CLOUD COVER ABOVE
       12000 FEET.
       "FAIR" INDICATES FEW OR NO CLOUDS BELOW 12,000 FEET WITH NO
       SIGNIFICANT WEATHER AND/OR OBSTRUCTIONS TO VISIBILITY.

  * THESE STATIONS DO NOT REPORT WEATHER SUCH AS RAIN...SNOW OR FOG.

NEZ001>004-019>022-054>056-302200-
NEBRASKA PANHANDLE

CITY           SKY/WX    TMP DP  RH WIND       PRES   REMARKS
SCOTTSBLUFF    MOSUNNY   70  41  34 W22G33    29.71F
ALLIANCE       MOSUNNY   69  41  36 W25G31    29.69F
CHADRON        MOSUNNY   69  48  47 W24G31    29.64F
KIMBALL        PTSUNNY   65  36  33 W21G26    29.76R
SIDNEY         MOSUNNY   69  38  32 W14       29.76F
$$

NEZ057>060-069>072-079>082-302200-
SOUTHWEST NEBRASKA

CITY           SKY/WX    TMP DP  RH WIND       PRES   REMARKS
NORTH PLATTE   MOSUNNY   77  42  28 SW15      29.71S
IMPERIAL       MOSUNNY   75  40  28 SW10      29.74F
LEXINGTON      SUNNY     78  44  29 S5        29.71F
MCCOOK         SUNNY     78  39  24 SE6       29.73F
OGALLALA       PTSUNNY   77  40  26 W14G25    29.72S
$$

NEZ005>010-023>029-035>040-094-302200-
NORTH CENTRAL NEBRASKA

CITY           SKY/WX    TMP DP  RH WIND       PRES   REMARKS
VALENTINE      PTSUNNY   72  44  36 W33G48    29.60F
AINSWORTH      MOSUNNY   73  43  34 SW29      29.64S
BROKEN BOW     MOSUNNY   80  40  23 W15G30    29.69F
O`NEILL        MOSUNNY   78  45  30 SW23G31   29.67R
ORD            SUNNY     79  43  27 SW17      29.67F
THEDFORD       SUNNY     76  43  30 W29       29.68F
$$

NEZ041-046>049-061>064-073>077-083>087-302200-
SOUTH CENTRAL NEBRASKA

CITY           SKY/WX    TMP DP  RH WIND       PRES   REMARKS
GRAND ISLAND   SUNNY     74  60  61 SE18      29.73F
AURORA         PTSUNNY   70  62  76 S12       29.75R
HASTINGS       PTSUNNY   73  59  61 S9G20     29.74S
HEBRON         TSTM      64  61  90 SW5       29.77F
HOLDREGE       SUNNY     77  42  28 SE8       29.72F
KEARNEY *      SUNNY     79  43  27 SW10      29.72F
YORK           CLOUDY    66  64  94 S14       29.76S
$$

NEZ011>018-030>034-042>045-302200-
NORTHEAST NEBRASKA

CITY           SKY/WX    TMP DP  RH WIND       PRES   REMARKS
NORFOLK        CLOUDY    69  62  78 S21G29    29.73S
ALBION         MOSUNNY   74  59  60 S20       29.71F
BLAIR          CLOUDY    65  63  92 S5        29.81F
COLUMBUS *     CLOUDY    66  61  82 S14       29.77S
FREMONT        RAIN      65  63  93 SE14      29.79F
TEKAMAH        RAIN      65  63  93 SE6       29.80F FOG
WAYNE          CLOUDY    70  64  80 S18G31    29.75F
$$

NEZ050>053-065>068-078-088>093-302200-
SOUTHEAST NEBRASKA

CITY           SKY/WX    TMP DP  RH WIND       PRES   REMARKS
LINCOLN        TSTM      65  63  93 SE9       29.79F FOG
OMAHA EPPLEY   HVY RAIN  66  63  90 SE6       29.81F FOG
BEATRICE       CLOUDY    65  63  95 E6        29.75F THUNDER
FALLS CITY     LGT RAIN  78  61  55 S9        29.77F
NEBRASKA CITY  CLOUDY    65  65 100 NW3       29.81F
PLATTSMOUTH    RAIN      65  63  91 CALM      29.80F
$$

NEZ044-045-051>053-067-302200-
OMAHA AREA

CITY           SKY/WX    TMP DP  RH WIND       PRES   REMARKS
OMAHA EPPLEY   HVY RAIN  66  63  90 SE6       29.81F FOG
BLAIR          CLOUDY    65  63  92 S5        29.81F
FREMONT        RAIN      65  63  93 SE14      29.79F
MILLARD        RAIN      66  64  93 CALM      29.80F
OFFUTT AFB     RAIN      66  66 100 E1        29.80F FOG
PLATTSMOUTH    RAIN      65  63  91 CALM      29.80F
WAHOO          HVY RAIN  65  62  90 S13G20    29.79F
$$


USA.gov is the U.S. government's official web portal to all federal, state and local government web resources and services.